Погода в Тундутове

Россия / Республика Калмыкия     47°56′23″N   44°37′42″E
темп.,
°C
ветер,
м/с
пор.,
м/с
влажн.,
%
обл.,
%
осадки,
мм/ч
давл.,
гПа
погр.,
м
20 апреля, вт
вт2000:00+12в2293100 0.2 101419
03:00+13ююв2293100 0.2 101328
06:00+13юв2393100 0.0 101371
09:00+14юв4785100 0.2 1012453
12:00+13ссв2298100 8.4 101262
15:00+18юв91475100 10.9 10091187
18:00+18юв9156869 0.4 1009667
21:00+14юв71582100 0.7 1011565
21 апреля, ср
ср2100:00+14ююв71387100 0.4 1013597
03:00+13ююв5991100 0.8 1013310
06:00+13ю4893100 0.3 1015304
09:00+13юз6771100 1.1 1016972
12:00+14юз5662100 0.0 10171163
15:00+15з4464100 0.1 1018985
18:00+15з4459100 0.0 1019160
21:00+12зюз33675 0.0 102128
22 апреля, чт
чт2200:00+10з337660 0.0 102135
03:00+9зсз3385100 0.0 102134
06:00+10сз3385100 0.0 102161
09:00+13ссз1167100 0.0 1023339
12:00+16зсз2253100 0.0 10231102
15:00+18сз22454 0.0 10221738
18:00+17сз2253100 0.0 102226
21:00+14ссз225522 0.0 102215
23 апреля, пт
пт2300:00+12св2359100 0.0 102219
03:00+11ссв2265100 0.0 102214
06:00+10всв3376100 0.0 102264
09:00+13св3365100 0.0 1022431
12:00+16св3456100 0.0 1022941
15:00+17ссв345163 0.4 10211495
18:00+16св225869 0.0 102056
21:00+12в227034 0.0 102023
24 апреля, сб
сб2400:00+11юв11756 0.0 101911
03:00+10ююв22775 0.0 101811
06:00+10ю3379100 0.0 101862
09:00+15ю4463100 0.0 1018530
12:00+18юз674954 0.4 10171754
15:00+18зюз6847100 0.6 10151639
18:00+16зюз6105741 0.0 1015360
21:00+12зсз51078100 0.3 1018415